Weather reports worldwide

Advertisment
Warcop, United Kingdom (3226): temperature & dewpoint: 02.07.2020 05:00:00 - 08.07.2020 05:00:00 (BST)Warcop, United Kingdom (3226): temperature -20cm: 02.07.2020 05:00:00 - 08.07.2020 05:00:00 (BST)Warcop, United Kingdom (3226): wind speed & gusts: 02.07.2020 05:00:00 - 08.07.2020 05:00:00 (BST)Warcop, United Kingdom (3226): wind direction: 02.07.2020 05:00:00 - 08.07.2020 05:00:00 (BST)Warcop, United Kingdom (3226): reduced air pressure: 02.07.2020 05:00:00 - 08.07.2020 05:00:00 (BST)Warcop, United Kingdom (3226): visibility: 02.07.2020 05:00:00 - 08.07.2020 05:00:00 (BST)Warcop, United Kingdom (3226): precipitation: 02.07.2020 05:00:00 - 08.07.2020 05:00:00 (BST)
Date & Time tt [°C] td [°C] tt -20cm [°C] ff [km/h] ff [kn] fx [km/h] fx [kn] dd ppp [hPa] vv [km] rr [mm]
08.07.2020 05:00:00 9,3 7,0 - 22 12 - - ENE 1013,9 50 0,0
08.07.2020 04:00:00 9,3 7,9 - 2 1 - - NW 1013,9 50 0,0
08.07.2020 03:00:00 9,6 8,2 - 0 0 - - N 1014,0 50 0,0
08.07.2020 02:00:00 10,2 8,0 - 4 2 - - NNE 1014,2 50 0,0
08.07.2020 01:00:00 9,7 8,2 - 0 0 - - N 1014,7 50 0,0
08.07.2020 00:00:00 9,7 8,5 - 2 1 - - ESE 1014,7 50 0,0
07.07.2020 23:00:00 9,6 8,2 - 4 2 - - E 1014,8 50 0,0
07.07.2020 22:00:00 10,3 8,3 - 4 2 - - ESE 1014,8 50 0,0
07.07.2020 21:00:00 11,0 8,7 - 4 2 - - E 1014,7 50 0,0
07.07.2020 20:00:00 12,2 8,2 - 2 1 - - N 1014,8 50 0,0
07.07.2020 19:00:00 12,5 8,0 - 2 1 - - WSW 1015,1 35 0,0
07.07.2020 18:00:00 12,3 8,5 - 8 4 - - SW 1015,6 40 0,0
07.07.2020 17:00:00 11,4 8,5 - 15 8 - - SW 1016,3 45 0,0
07.07.2020 16:00:00 11,3 8,2 - 15 8 - - WSW 1016,6 50 0,0
07.07.2020 15:00:00 11,4 9,2 - 13 7 - - SSW 1016,8 40 0,0
07.07.2020 14:00:00 11,7 7,9 - 15 8 - - WSW 1016,8 50 0,0
07.07.2020 13:00:00 12,0 8,4 - 15 8 - - WSW 1017,1 50 0,0
07.07.2020 12:00:00 11,7 8,6 - 13 7 - - WSW 1017,3 45 0,0
07.07.2020 11:00:00 11,0 9,0 - 11 6 - - SW 1017,7 35 0,0
07.07.2020 10:00:00 11,4 8,6 14,0 16 9 - - WSW 1017,9 40 0,0
07.07.2020 09:00:00 11,0 8,7 - 9 5 - - W 1018,1 45 0,0
07.07.2020 08:00:00 10,4 8,0 - 0 0 - - N 1018,4 50 0,0
07.07.2020 07:00:00 9,7 8,0 - 2 1 - - SSW 1018,6 45 0,0
07.07.2020 06:00:00 9,3 7,9 - 4 2 - - NNE 1018,7 40 0,0
07.07.2020 05:00:00 8,9 7,5 - 5 3 - - NW 1019,2 45 0,0
07.07.2020 04:00:00 9,1 7,8 - 5 3 - - E 1019,6 40 0,0
07.07.2020 03:00:00 8,4 6,9 - 5 3 - - NE 1020,0 45 0,0
07.07.2020 02:00:00 8,9 6,6 - 5 3 - - N 1020,4 50 0,0
07.07.2020 01:00:00 10,0 6,5 - 13 7 - - WNW 1020,5 50 0,0
07.07.2020 00:00:00 9,7 6,6 - 13 7 - - W 1020,6 50 0,0
06.07.2020 23:00:00 10,2 6,7 - 16 9 - - WNW 1020,8 50 0,0
06.07.2020 22:00:00 10,8 6,1 - 22 12 - - WNW 1020,6 50 0,0
06.07.2020 21:00:00 12,1 7,4 - 18 10 - - WNW 1020,2 50 0,0
06.07.2020 20:00:00 13,2 7,5 - 22 12 - - NW 1019,9 50 0,0
06.07.2020 19:00:00 13,3 7,1 - 22 12 - - WNW 1020,0 50 0,0
06.07.2020 18:00:00 13,4 7,3 - 24 13 - - WNW 1019,8 45 0,0
06.07.2020 17:00:00 15,0 6,5 - 29 16 - - WNW 1019,4 45 0,0
06.07.2020 16:00:00 15,2 8,0 - 18 10 - - NW 1018,9 50 0,0
06.07.2020 15:00:00 14,7 8,5 - 18 10 - - NW 1018,7 45 0,0
06.07.2020 14:00:00 14,9 8,8 - 18 10 - - NW 1018,0 45 0,0
06.07.2020 13:00:00 14,3 8,5 - 26 14 - - NW 1017,4 45 0,0
06.07.2020 12:00:00 12,9 9,2 - 15 8 - - NW 1016,9 50 0,0
06.07.2020 11:00:00 13,7 9,1 - 18 10 - - NNW 1015,6 40 0,0
06.07.2020 10:00:00 13,0 10,0 14,0 22 12 - - NW 1014,7 45 0,0
06.07.2020 09:00:00 11,2 9,4 - 18 10 - - NW 1014,0 40 0,0
06.07.2020 08:00:00 10,8 9,3 - 18 10 - - NW 1012,5 50 0,0
06.07.2020 07:00:00 10,0 9,4 - 16 9 - - NW 1011,0 28 1,2
06.07.2020 06:00:00 9,5 8,8 - 13 7 - - NW 1010,3 9 0,8
06.07.2020 05:00:00 9,6 8,0 - 18 10 - - WNW 1009,7 45 0,4
06.07.2020 04:00:00 10,1 7,7 - 24 13 - - WNW 1009,2 45 0,0
06.07.2020 03:00:00 10,1 7,5 - 24 13 - - WNW 1009,0 45 0,0
06.07.2020 02:00:00 10,0 7,2 - 24 13 - - WNW 1008,6 45 0,0
06.07.2020 01:00:00 10,1 7,4 - 21 11 - - WNW 1008,0 50 0,0
06.07.2020 00:00:00 9,8 7,2 - 24 13 - - WNW 1007,0 50 0,0
05.07.2020 23:00:00 10,2 8,0 - 22 12 - - WNW 1006,1 50 0,0
05.07.2020 22:00:00 10,0 7,9 - 22 12 - - NW 1005,3 45 0,0
05.07.2020 21:00:00 9,4 8,6 - 22 12 - - NW 1004,2 9 2,2
05.07.2020 20:00:00 10,2 8,2 - 13 7 - - W 1003,3 50 2,0
05.07.2020 19:00:00 10,4 7,8 - 21 11 57 31 WSW 1003,1 35 0,4
05.07.2020 18:00:00 11,3 7,9 - 31 17 57 31 WSW 1003,2 12 0,2
05.07.2020 17:00:00 12,6 7,9 - 34 18 63 34 WSW 1003,5 30 0,0
05.07.2020 16:00:00 12,3 8,8 - 37 20 63 34 WSW 1003,6 12 0,0
05.07.2020 15:00:00 12,8 7,9 - 41 22 63 34 WSW 1003,5 50 0,0
05.07.2020 14:00:00 11,4 9,4 - 35 19 54 29 WSW 1004,0 12 0,4
05.07.2020 13:00:00 10,9 9,1 - 26 14 50 27 WSW 1004,2 17 1,0
05.07.2020 12:00:00 10,8 8,4 - 28 15 - - WSW 1004,2 7 0,2
05.07.2020 11:00:00 12,3 6,6 - 31 17 50 27 W 1003,5 50 0,0
05.07.2020 10:00:00 12,0 6,9 14,7 28 15 46 25 WNW 1003,1 45 0,0
05.07.2020 09:00:00 11,9 7,9 - 21 11 46 25 WNW 1002,5 50 0,0
05.07.2020 08:00:00 11,7 7,9 - 24 13 50 27 WNW 1001,5 50 0,0
05.07.2020 07:00:00 12,3 9,4 - 18 10 - - NW 1000,3 50 0,0
05.07.2020 06:00:00 13,1 8,6 - 26 14 55 30 W 999,2 50 0,0
05.07.2020 05:00:00 13,8 10,5 - 35 19 52 28 WNW 998,0 50 0,0
05.07.2020 04:00:00 14,2 12,8 - 31 17 65 35 WSW 996,6 50 0,0
05.07.2020 03:00:00 14,1 13,5 - 41 22 63 34 WSW 996,3 7 0,2
05.07.2020 02:00:00 14,1 13,9 - 34 18 52 28 WSW 996,6 4,2 0,8
05.07.2020 01:00:00 13,7 13,5 - 34 18 54 29 SW 997,2 3,2 0,8
05.07.2020 00:00:00 13,9 13,4 - 37 20 50 27 SW 998,3 5 0,6
04.07.2020 23:00:00 14,3 13,9 - 28 15 - - SSW 998,9 6 0,2
04.07.2020 22:00:00 14,1 13,9 - 16 9 - - SSW 1000,3 7 0,2
04.07.2020 21:00:00 13,9 13,6 - 21 11 - - SW 1001,7 5 0,0
04.07.2020 20:00:00 14,0 13,4 - 22 12 - - SW 1002,5 8 0,0
04.07.2020 19:00:00 14,2 13,5 - 16 9 - - SW 1003,2 17 0,0
04.07.2020 18:00:00 14,8 12,9 - 24 13 - - SW 1003,7 50 0,0
04.07.2020 17:00:00 15,6 13,3 - 22 12 - - WSW 1004,1 50 0,0
04.07.2020 16:00:00 15,3 13,1 - 24 13 - - SW 1004,5 40 0,0
04.07.2020 15:00:00 14,8 13,1 - 21 11 - - SW 1004,7 11 0,0
04.07.2020 14:00:00 15,7 13,1 - 26 14 - - SW 1004,1 50 0,0
04.07.2020 13:00:00 16,0 13,3 - 26 14 - - WSW 1004,0 45 0,0
04.07.2020 12:00:00 15,8 13,3 - 22 12 - - WSW 1003,9 45 0,0
04.07.2020 11:00:00 15,7 13,7 - 16 9 - - WSW 1003,7 50 0,0
04.07.2020 10:00:00 14,7 13,9 14,5 13 7 - - WSW 1003,8 45 0,0
04.07.2020 09:00:00 14,5 13,9 - 15 8 - - WSW 1003,7 50 0,0
04.07.2020 08:00:00 13,9 13,7 - 5 3 - - SW 1003,6 50 0,0
04.07.2020 07:00:00 13,5 13,3 - 8 4 - - SW 1003,6 50 0,0
04.07.2020 06:00:00 13,3 13,2 - 9 5 - - SW 1003,5 50 0,6
04.07.2020 05:00:00 13,2 13,1 - 8 4 - - S 1003,3 5 2,6
04.07.2020 04:00:00 13,3 13,2 - 8 4 - - S 1003,4 5 2,0
04.07.2020 03:00:00 13,4 13,3 - 11 6 - - S 1003,7 6 1,8
04.07.2020 02:00:00 13,4 13,2 - 11 6 - - S 1004,0 5 2,0
04.07.2020 01:00:00 13,5 13,3 - 11 6 - - S 1004,4 14 0,2
04.07.2020 00:00:00 13,5 13,1 - 9 5 - - SSW 1004,8 12 1,4
03.07.2020 23:00:00 13,6 13,0 - 9 5 - - SSW 1005,0 15 0,0
03.07.2020 22:00:00 13,6 13,0 - 11 6 - - SW 1005,0 35 0,0
03.07.2020 21:00:00 13,8 12,9 - 18 10 - - WSW 1004,7 50 0,0
03.07.2020 20:00:00 13,9 12,7 - 15 8 - - WSW 1004,7 50 0,0
03.07.2020 19:00:00 14,0 12,5 - 16 9 - - WSW 1004,9 50 0,0
03.07.2020 18:00:00 13,6 12,8 - 21 11 46 25 SW 1005,0 50 0,0
03.07.2020 17:00:00 13,9 12,6 - 21 11 46 25 SW 1005,3 40 0,0
03.07.2020 16:00:00 14,0 12,8 - 34 18 48 26 SW 1005,4 18 0,0
03.07.2020 15:00:00 14,4 13,0 - 22 12 48 26 SW 1005,8 30 0,0
03.07.2020 14:00:00 13,7 12,5 - 28 15 46 25 SW 1006,4 18 0,0
03.07.2020 13:00:00 13,4 12,1 - 28 15 50 27 SW 1006,9 50 0,0
03.07.2020 12:00:00 13,4 11,9 - 26 14 - - SW 1007,1 40 0,0
03.07.2020 11:00:00 12,8 11,7 - 26 14 - - SW 1007,1 16 0,0
03.07.2020 10:00:00 12,3 11,4 14,7 22 12 - - SW 1007,4 30 0,0
03.07.2020 09:00:00 11,5 10,6 - 22 12 - - SW 1008,0 26 0,0
03.07.2020 08:00:00 10,7 9,9 - 26 14 46 25 SW 1008,2 12 0,0
03.07.2020 07:00:00 10,4 9,7 - 15 8 - - SSW 1008,8 8 0,2
03.07.2020 06:00:00 10,8 9,4 - 16 9 - - WSW 1009,6 50 0,0
03.07.2020 05:00:00 10,9 9,8 - 11 6 - - WSW 1009,8 50 0,6
03.07.2020 04:00:00 11,0 9,2 - 9 5 - - WSW 1010,4 30 0,0
03.07.2020 03:00:00 11,0 9,9 - 9 5 - - SSW 1011,3 29 0,0
03.07.2020 02:00:00 11,2 9,6 - 11 6 - - S 1011,8 40 0,0
03.07.2020 01:00:00 11,2 9,8 - 8 4 - - S 1012,2 30 0,0
03.07.2020 00:00:00 11,2 9,7 - 8 4 - - SSW 1012,5 50 0,0
02.07.2020 23:00:00 11,2 9,6 - 13 7 - - WSW 1012,8 50 0,0
02.07.2020 22:00:00 11,9 10,1 - 5 3 - - S 1012,6 50 0,0
02.07.2020 21:00:00 12,8 10,5 - 11 6 - - SSW 1012,3 50 0,0
02.07.2020 20:00:00 13,6 10,6 - 15 8 - - SW 1012,1 50 0,0
02.07.2020 19:00:00 13,6 10,8 - 11 6 - - SSE 1012,0 45 0,0
02.07.2020 18:00:00 13,0 10,1 - 16 9 - - SE 1012,0 45 0,0
02.07.2020 17:00:00 12,3 10,0 - 13 7 - - SSE 1012,2 10 0,0
02.07.2020 16:00:00 13,5 9,1 - 13 7 - - SSE 1011,9 50 0,0
02.07.2020 15:00:00 13,8 9,1 - 15 8 - - SSE 1011,6 50 0,0
02.07.2020 14:00:00 12,9 8,8 - 15 8 - - SE 1011,5 50 0,0
02.07.2020 13:00:00 14,1 9,1 - 8 4 - - SE 1010,9 45 0,0
02.07.2020 12:00:00 12,6 8,2 - 13 7 - - ENE 1010,8 50 0,0
02.07.2020 11:00:00 11,3 7,0 - 11 6 - - E 1010,6 40 0,0
02.07.2020 10:00:00 10,5 7,7 14,7 26 14 - - ENE 1010,0 15 0,0
02.07.2020 09:00:00 10,3 7,9 - 24 13 - - E 1009,4 45 0,0
02.07.2020 08:00:00 9,9 7,6 - 22 12 - - ENE 1008,8 35 0,2
02.07.2020 07:00:00 8,7 8,1 - 5 3 - - SW 1008,5 12 0,0
02.07.2020 06:00:00 8,9 7,3 - 21 11 - - E 1008,0 22 0,0
02.07.2020 05:00:00 9,1 7,4 - 24 13 - - ENE 1007,3 50 0,2

tt = temperature
td = dewpoint
tt -20cm = temperature -20cm
ff = wind speed
fx = gusts
dd = wind direction
ppp = reduced air pressure
vv = visibility
rr = precipitation

Next stations